ACA872 CYYZ-LFPG

Flight info

Callsign ACA872
Flight time N/A
Altitude 35000
Route VERDO7 LORKA DCT ANCER DCT TUDEP/M084F370 DCT 52N050W 54N040W 55N030W 55N020W DCT DOGAL DCT BEXET/N0483F390 DCT MORAG DCT NUCHU L18 MID/N0491F290 Y803 SFD UM605 BIBAX
Aircraft B77W/H-SDE1E2E3FGHIJ2J3J4J5M1RWXY/LB1D1

Departure

Time 2026-05-08 07:41
Airport Toronto Pearson International Airport (CYYZ)

Arrival

Time N/A
Airport Charles de Gaulle International Airport (LFPG)
Time Latitude Longitude Altitude Speed Heading
2026-05-08 07:07 43.68308 -79.62138 575 ft 0 kts 112°
2026-05-08 07:30 43.68316 -79.62164 577 ft 4 kts 112°
2026-05-08 07:30 43.68324 -79.62192 577 ft 4 kts 115°
2026-05-08 07:30 43.68338 -79.62223 576 ft 4 kts 135°
2026-05-08 07:31 43.68359 -79.62244 578 ft 4 kts 155°
2026-05-08 07:31 43.68376 -79.62254 578 ft 0 kts 160°
2026-05-08 07:33 43.68353 -79.62258 576 ft 6 kts 202°
2026-05-08 07:33 43.68317 -79.62324 575 ft 12 kts 235°
2026-05-08 07:34 43.68266 -79.62416 575 ft 12 kts 231°
2026-05-08 07:34 43.68224 -79.62511 575 ft 12 kts 270°
2026-05-08 07:34 43.68264 -79.62611 579 ft 13 kts 313°
2026-05-08 07:34 43.68362 -79.62747 578 ft 31 kts 315°
2026-05-08 07:35 43.68533 -79.62967 577 ft 32 kts 317°
2026-05-08 07:35 43.68688 -79.63167 573 ft 30 kts 316°
2026-05-08 07:35 43.68838 -79.63365 580 ft 30 kts 319°
2026-05-08 07:35 43.68989 -79.63563 579 ft 30 kts 313°
2026-05-08 07:36 43.68964 -79.63749 579 ft 22 kts 228°
2026-05-08 07:36 43.68858 -79.63906 583 ft 22 kts 225°
2026-05-08 07:36 43.68751 -79.64062 583 ft 22 kts 227°
2026-05-08 07:36 43.68644 -79.64218 580 ft 22 kts 225°
2026-05-08 07:37 43.68536 -79.64374 581 ft 22 kts 226°
2026-05-08 07:37 43.68428 -79.64531 581 ft 23 kts 226°
2026-05-08 07:37 43.68303 -79.64714 586 ft 28 kts 227°
2026-05-08 07:37 43.68158 -79.64921 585 ft 30 kts 226°
2026-05-08 07:38 43.68015 -79.65132 580 ft 30 kts 227°
2026-05-08 07:38 43.67871 -79.65335 580 ft 30 kts 225°
2026-05-08 07:38 43.67736 -79.65536 585 ft 27 kts 226°
2026-05-08 07:38 43.67610 -79.65718 587 ft 27 kts 226°
2026-05-08 07:39 43.67483 -79.65903 586 ft 27 kts 226°
2026-05-08 07:39 43.67360 -79.66083 586 ft 24 kts 226°
2026-05-08 07:39 43.67290 -79.66249 582 ft 15 kts 289°
2026-05-08 07:39 43.67373 -79.66340 580 ft 16 kts 340°
2026-05-08 07:40 43.67479 -79.66314 578 ft 16 kts 26°
2026-05-08 07:40 43.67565 -79.66187 583 ft 28 kts 46°
2026-05-08 07:40 43.67830 -79.65803 583 ft 92 kts 46°
2026-05-08 07:40 43.68442 -79.64917 586 ft 161 kts 46°
2026-05-08 07:41 43.69299 -79.63659 950 ft 185 kts 45°
2026-05-08 07:41 43.70223 -79.62424 1751 ft 187 kts 37°
2026-05-08 07:41 43.71264 -79.61270 2290 ft 196 kts 34°
2026-05-08 07:41 43.72385 -79.60129 2780 ft 205 kts 31°
2026-05-08 07:42 43.73589 -79.58976 3188 ft 219 kts 29°
2026-05-08 07:42 43.74921 -79.57826 3627 ft 230 kts 26°
2026-05-08 07:42 43.76342 -79.56709 4205 ft 240 kts 24°
2026-05-08 07:42 43.77820 -79.55579 4840 ft 248 kts 24°
2026-05-08 07:43 43.79402 -79.54391 5282 ft 264 kts 23°
2026-05-08 07:43 43.81015 -79.53105 6014 ft 271 kts 26°
2026-05-08 07:43 43.82638 -79.51712 6730 ft 277 kts 26°
2026-05-08 07:43 43.84291 -79.50300 7457 ft 281 kts 25°
2026-05-08 07:44 43.85979 -79.48893 8218 ft 285 kts 24°
2026-05-08 07:44 43.87657 -79.47391 8865 ft 293 kts 37°
2026-05-08 07:44 43.88802 -79.45009 9422 ft 313 kts 70°
2026-05-08 07:44 43.88978 -79.41951 10094 ft 319 kts 98°
2026-05-08 07:45 43.88533 -79.38897 10568 ft 332 kts 104°
2026-05-08 07:45 43.87967 -79.35675 10757 ft 356 kts 105°
2026-05-08 07:45 43.87341 -79.32282 10962 ft 381 kts 105°
2026-05-08 07:45 43.86661 -79.28633 11371 ft 398 kts 105°
2026-05-08 07:46 43.85965 -79.24866 12083 ft 408 kts 105°
2026-05-08 07:46 43.85261 -79.21027 12997 ft 413 kts 105°
2026-05-08 07:46 43.84553 -79.17140 13959 ft 418 kts 105°
2026-05-08 07:46 43.83842 -79.13216 14814 ft 422 kts 105°
2026-05-08 07:47 43.83123 -79.09245 15667 ft 427 kts 105°
2026-05-08 07:47 43.82396 -79.05236 16506 ft 432 kts 105°
2026-05-08 07:47 43.81660 -79.01187 17373 ft 436 kts 105°
2026-05-08 07:47 43.80915 -78.97092 18210 ft 441 kts 105°
2026-05-08 07:48 43.80159 -78.92948 18911 ft 446 kts 105°
2026-05-08 07:48 43.79395 -78.88766 19618 ft 451 kts 105°
2026-05-08 07:48 43.78619 -78.84537 20333 ft 455 kts 105°
2026-05-08 07:48 43.77972 -78.80247 20920 ft 460 kts 96°
2026-05-08 07:49 43.78030 -78.75805 21505 ft 466 kts 81°
2026-05-08 07:49 43.78824 -78.71470 22224 ft 465 kts 67°
2026-05-08 07:49 43.80188 -78.67426 22819 ft 465 kts 61°
2026-05-08 07:49 43.81643 -78.63394 23422 ft 471 kts 61°
2026-05-08 07:50 43.82608 -78.60703 23799 ft 474 kts 61°
2026-05-08 07:50 43.84546 -78.55239 24483 ft 479 kts 61°
2026-05-08 07:50 43.86006 -78.51063 25043 ft 483 kts 62°
2026-05-08 07:50 43.86989 -78.48229 25390 ft 486 kts 62°
2026-05-08 07:51 43.88928 -78.42598 26012 ft 492 kts 62°
2026-05-08 07:51 43.89906 -78.39748 26303 ft 495 kts 62°
2026-05-08 07:51 43.91893 -78.33942 26901 ft 501 kts 62°
2026-05-08 07:51 43.92885 -78.31037 27199 ft 504 kts 62°
2026-05-08 07:52 43.94383 -78.26644 27623 ft 508 kts 62°
2026-05-08 07:52 43.95901 -78.22191 28067 ft 512 kts 62°
2026-05-08 07:52 43.97428 -78.17703 28472 ft 516 kts 62°
2026-05-08 07:52 43.98965 -78.13180 28859 ft 520 kts 62°
2026-05-08 07:53 44.00513 -78.08615 29295 ft 523 kts 62°
2026-05-08 07:53 44.02061 -78.04042 29704 ft 525 kts 62°
2026-05-08 07:53 44.03619 -77.99435 30089 ft 527 kts 62°
2026-05-08 07:53 44.05175 -77.94820 30462 ft 528 kts 62°
2026-05-08 07:54 44.06733 -77.90194 30851 ft 527 kts 62°
2026-05-08 07:54 44.08288 -77.85569 31243 ft 528 kts 62°
2026-05-08 07:54 44.09839 -77.80949 31599 ft 528 kts 62°
2026-05-08 07:54 44.11393 -77.76312 31955 ft 529 kts 62°
2026-05-08 07:55 44.12946 -77.71669 32322 ft 529 kts 62°
2026-05-08 07:55 44.14498 -77.67022 32687 ft 529 kts 62°
2026-05-08 07:55 44.16035 -77.62412 33034 ft 530 kts 62°
2026-05-08 07:55 44.17599 -77.57715 33404 ft 530 kts 62°
2026-05-08 07:56 44.19149 -77.53055 33760 ft 530 kts 62°
2026-05-08 07:56 44.20800 -77.48474 34066 ft 528 kts 57°
2026-05-08 07:56 44.22708 -77.44101 34302 ft 527 kts 54°
2026-05-08 07:56 44.24679 -77.39780 34554 ft 527 kts 54°
2026-05-08 07:57 44.26661 -77.35474 34817 ft 528 kts 54°
2026-05-08 07:57 44.30635 -77.26781 34934 ft 532 kts 54°
2026-05-08 07:58 44.34541 -77.18087 34918 ft 525 kts 55°
2026-05-08 07:58 44.38401 -77.09425 34929 ft 525 kts 55°
2026-05-08 07:59 44.42233 -77.00807 34928 ft 526 kts 55°
2026-05-08 07:59 44.46095 -76.92101 34940 ft 527 kts 55°
2026-05-08 08:00 44.49956 -76.83374 34922 ft 527 kts 55°
2026-05-08 08:00 44.53815 -76.74624 34913 ft 527 kts 55°
2026-05-08 08:01 44.57660 -76.65876 34913 ft 527 kts 55°
2026-05-08 08:01 44.61499 -76.57118 34913 ft 527 kts 56°
2026-05-08 08:02 44.65329 -76.48352 34898 ft 526 kts 56°
2026-05-08 08:02 44.69146 -76.39588 34894 ft 525 kts 56°
2026-05-08 08:03 44.72950 -76.30830 34894 ft 524 kts 56°
2026-05-08 08:03 44.76806 -76.22138 34893 ft 523 kts 52°
2026-05-08 08:04 44.81395 -76.14282 34894 ft 518 kts 45°
2026-05-08 08:04 44.86217 -76.06727 34892 ft 518 kts 45°
2026-05-08 08:05 44.91018 -75.99149 34904 ft 518 kts 45°
2026-05-08 08:05 44.95790 -75.91518 34895 ft 519 kts 46°
2026-05-08 08:06 45.00549 -75.83849 34884 ft 519 kts 46°
2026-05-08 08:06 45.05305 -75.76163 34883 ft 519 kts 46°
2026-05-08 08:07 45.10024 -75.68523 34891 ft 519 kts 46°
2026-05-08 08:07 45.14766 -75.60827 34874 ft 518 kts 46°
2026-05-08 08:08 45.19506 -75.53112 34869 ft 518 kts 46°
2026-05-08 08:08 45.24227 -75.45407 34888 ft 518 kts 46°
2026-05-08 08:09 45.28945 -75.37685 34874 ft 517 kts 46°
2026-05-08 08:09 45.33654 -75.29957 34864 ft 516 kts 47°
2026-05-08 08:10 45.38351 -75.22228 34863 ft 516 kts 47°
2026-05-08 08:10 45.43036 -75.14496 34865 ft 515 kts 47°
2026-05-08 08:11 45.47712 -75.06758 34849 ft 515 kts 47°
2026-05-08 08:11 45.52383 -74.99007 34854 ft 515 kts 47°
2026-05-08 08:12 45.57017 -74.91296 34873 ft 515 kts 47°
2026-05-08 08:12 45.61680 -74.83515 34859 ft 516 kts 47°
2026-05-08 08:13 45.66341 -74.75716 34861 ft 516 kts 47°
2026-05-08 08:13 45.70996 -74.67905 34856 ft 516 kts 47°
2026-05-08 08:14 45.75652 -74.60069 34858 ft 516 kts 47°
2026-05-08 08:14 45.80301 -74.52225 34861 ft 516 kts 47°
2026-05-08 08:15 45.84943 -74.44368 34853 ft 516 kts 48°
2026-05-08 08:15 45.89589 -74.36485 34875 ft 517 kts 48°
2026-05-08 08:16 45.94230 -74.28587 34859 ft 518 kts 48°
2026-05-08 08:16 45.98871 -74.20666 34864 ft 518 kts 48°
2026-05-08 08:17 46.03510 -74.12725 34858 ft 518 kts 48°
2026-05-08 08:17 46.08150 -74.04759 34865 ft 519 kts 48°
2026-05-08 08:18 46.12780 -73.96789 34854 ft 518 kts 48°
2026-05-08 08:18 46.17403 -73.88808 34855 ft 518 kts 48°
2026-05-08 08:19 46.22014 -73.80823 34846 ft 518 kts 49°
2026-05-08 08:19 46.24290 -73.76875 34860 ft 518 kts 49°